Location: Dziadowski
(50.3833°N, 20.0333°E)
Time: 08:24:00
(UTC+00:00)

MOS 1 Rocket - Pass Details

Date: 18 January 2026
Orbit: 608 x 815 km, 97.4° (Epoch: 15 February)

Event Time Altitude Azimuth Distance (km) Brightness Sun altitude
Rises 05:27:01 0° 11° (N) 3,036 6.5 -10.1°
Reaches altitude 10° 05:29:19 10° 10° (N) 2,087 5.7 -9.7°
Maximum altitude 05:33:50 73° 286° (WNW) 671 3.1 -9.0°
Drops below altitude 10° 05:38:07 10° 202° (SSW) 1,983 5.7 -8.4°
Sets 05:40:15 0° 201° (SSW) 2,870 6.5 -8.1°
